Regional Weather Roundup
Issued by NWS

Home | Current Version | Previous Version | Text Only | Print | Product List | Glossary Off
Versions: 1 2 3 4 5 6 7 8 9 10 11 12 13 14 15 16 17 18 19 20 21 22 23 24 25 26 27 28 29 30 31 32 33 34 35 36 37 38 39 40 41 42 43 44 45 46 47 48 49 50

000
ASUS45 KABQ 070501
RWRNM
WEATHER ROUNDUP FOR NEW MEXICO
NATIONAL WEATHER SERVICE ALBUQUERQUE NM
1100 PM MDT WED MAY 06 2015

NOTE: "FAIR" MEANS FEW OR NO CLOUDS BELOW 12,000 FEET AGL WITH NO
       SIGNIFICANT WEATHER OR OBSTRUCTIONS TO VISION.

      THIS PRODUCT IS RELEASED AS TWO VERSIONS.  ONE VERSION NEAR
      THE TOP OF THE HOUR CONTAINING PRELIMINARY DATA FROM ALBUQUERQUE
      AND OTHER STATIONS.  A FINAL VERSION WITH ADDITIONAL DATA IS
      ISSUED ABOUT 10 MINUTES AFTER THE HOUR.

NMZ501-503-504-510>518-070600-
NORTHWEST PLATEAU/NORTHCENTRAL MOUNTAINS

CITY           SKY/WX    TMP DP  RH WIND       PRES   REMARKS
FARMINGTON     MOCLDY    52  44  74 E12       29.89R
SANTA FE       CLOUDY    49  40  71 N3        29.95R
TAOS           PTCLDY    43  34  70 CALM      29.98S

$$
NMZ402-403-502-505>509-070600-
WESTCENTRAL MOUNTAINS/SOUTHWEST MOUNTAINS

CITY           SKY/WX    TMP DP  RH WIND       PRES   REMARKS
GALLUP         PTCLDY    49  33  54 SW6       29.94R
SILVER CITY      N/A     52  10  19 W7        29.94R

$$
NMZ407-409-411-412-070600-
SOUTHERN DESERTS

CITY           SKY/WX    TMP DP  RH WIND       PRES   REMARKS
DEMING         CLEAR     67  15  13 W13       29.86R
HOLLOMAN AFB   PTCLDY    64  33  30 SE5       29.83R
ALAMOGORDO     PTCLDY    59  28  31 CALM      29.85R
T OR C         CLEAR     60  17  18 W8        29.86R

$$
NMZ519>523-070600-
CENTRAL VALLEYS/CENTRAL HIGHLANDS

CITY           SKY/WX    TMP DP  RH WIND       PRES   REMARKS
ALBUQUERQUE    MOCLDY    60  40  47 W8        29.91R THUNDER
DOUBLE EAGLE   CLOUDY    55  40  57 CALM      29.93S
CLINES CORNERS MOCLDY    48  36  63 N10       29.95S
BELEN          MOCLDY    54  39  55 CALM      29.90R
SOCORRO        NOT AVBL

$$
NMZ524>526-539-540-070600-
SOUTHCENTRAL MOUNTAINS

CITY           SKY/WX    TMP DP  RH WIND       PRES   REMARKS
RUIDOSO        NOT AVBL

$$
NMZ527>531-070600-
NORTHEAST HIGHLANDS/NORTHEAST PLAINS

CITY           SKY/WX    TMP DP  RH WIND       PRES   REMARKS
LAS VEGAS      MOCLDY    47  36  65 S7        29.94R
RATON          MOCLDY    53  38  56 SW10      29.90R
CLAYTON        PTCLDY    59  41  51 W10       29.82R

$$
NMZ532>537-070600-
EASTCENTRAL PLAINS

CITY           SKY/WX    TMP DP  RH WIND       PRES   REMARKS
TUCUMCARI      CLEAR     60  44  55 NW3       29.79R
CANNON AFB     CLEAR     60  44  55 S9        29.83R
CLOVIS AIRPORT CLEAR     57  45  62 S12       29.83S

$$
NMZ028-029-538-070600-
SOUTHEAST PLAINS

CITY           SKY/WX    TMP DP  RH WIND       PRES   REMARKS
ROSWELL        CLEAR     61  43  51 W9        29.79S
ARTESIA        CLEAR     61  39  44 W10       29.80S
CARLSBAD       CLEAR     71  60  68 SE14      29.80R
HOBBS          CLEAR     66  61  82 S10       29.84F


$$


USA.gov is the U.S. government's official web portal to all federal, state and local government web resources and services.